EW2077 Weather Reports


Display with metric or nautical units.
time (UTC)temp
F
wind
direction
speed
MPH
gust
MPH
rain 1hr
in
rain 24hr
in
rain mn
in
humidity
%
barometer
mb
20260904113009 48 161 0.0 0.0 0.00 0.00 0.00 63 1031.8
20260904111510 48 161 0.0 0.0 0.00 0.00 0.00 61 1031.7
20260904110002 49 161 0.0 0.0 0.00 0.00 0.00 61 1031.5
20260904104614 49 161 0.0 0.0 0.00 0.00 0.00 61 1031.4
20260904103100 50 161 0.0 0.0 0.00 0.00 0.00 60 1031.2
20260904101556 50 161 0.0 0.0 0.00 0.00 0.00 61 1031.1
20260904100115 50 161 0.0 0.0 0.00 0.00 0.00 61 1031.2
20260904094600 50 161 0.0 0.0 0.00 0.00 0.00 60 1031.1
20260904093053 50 161 0.0 0.0 0.00 0.00 0.00 60 1031.1
20260904091551 51 161 0.0 0.0 0.00 0.00 0.00 59 1031.0
20260904090050 51 161 0.0 0.0 0.00 0.00 0.00 61 1031.0
20260904084549 51 161 0.0 0.0 0.00 0.00 0.00 60 1031.0
20260904083050 51 161 0.0 0.0 0.00 0.00 0.00 60 1031.0
20260904081545 52 161 0.0 0.0 0.00 0.00 0.00 60 1031.0
20260904080043 52 161 0.0 0.0 0.00 0.00 0.00 59 1030.9
20260904074543 52 161 0.0 0.0 0.00 0.00 0.00 59 1030.8
20260904073039 53 161 0.0 0.0 0.00 0.00 0.00 58 1030.9
20260904071536 54 161 0.0 0.0 0.00 0.00 0.00 56 1031.0
20260904070040 54 161 0.0 0.0 0.00 0.00 0.00 55 1031.0
20260904064530 55 161 0.0 0.0 0.00 0.00 0.00 54 1031.2
20260904063028 55 161 0.0 0.0 0.00 0.00 0.00 53 1031.1
20260904061529 56 161 0.0 0.0 0.00 0.00 0.00 52 1031.1
20260904060026 57 161 0.0 0.0 0.00 0.00 0.00 51 1031.2
20260904054523 58 161 0.0 0.0 0.00 0.00 0.00 50 1031.2
20260904053033 58 161 0.0 0.0 0.00 0.00 0.00 49 1031.0
20260904051519 58 161 0.0 0.0 0.00 0.00 0.00 49 1031.0
20260904050030 59 161 0.0 0.0 0.00 0.00 0.00 49 1031.0
20260904044521 60 161 0.0 0.0 0.00 0.00 0.00 47 1031.0
20260904043017 60 161 0.0 0.0 0.00 0.00 0.00 47 1031.1
20260904041518 60 161 0.0 0.0 0.00 0.00 0.00 47 1031.2
20260904040016 61 161 0.0 0.0 0.00 0.00 0.00 45 1031.2
20260904034516 62 161 0.0 0.0 0.00 0.00 0.00 44 1031.2
20260904033016 63 161 0.0 0.0 0.00 0.00 0.00 43 1031.1
20260904031514 64 161 0.0 0.0 0.00 0.00 0.00 40 1030.9
20260904030014 65 161 0.0 0.0 0.00 0.00 0.00 39 1030.9
20260904024515 67 161 0.0 0.0 0.00 0.00 0.00 37 1030.7
20260904023014 69 161 0.0 0.0 0.00 0.00 0.00 35 1030.5
20260904021512 71 161 0.0 0.0 0.00 0.00 0.00 33 1030.3
20260904020012 72 161 0.0 0.0 0.00 0.00 0.00 31 1030.2
20260904014512 72 167 0.0 0.0 0.00 0.00 0.00 30 1030.1
20260904013011 73 167 0.0 0.0 0.00 0.00 0.00 29 1030.0
20260904011511 74 168 0.0 4.0 0.00 0.00 0.00 30 1030.1
20260904010011 75 174 0.0 0.0 0.00 0.00 0.00 29 1030.1
20260904004510 75 176 0.0 0.0 0.00 0.00 0.00 28 1030.0
20260904003010 76 155 0.0 3.0 0.00 0.00 0.00 27 1030.0
20260904001509 76 156 0.0 4.0 0.00 0.00 0.00 26 1029.9
20260904000010 77 105 0.0 5.0 0.00 0.00 0.00 26 1029.7
20260903234507 78 171 0.0 4.0 0.00 0.00 0.00 25 1029.7
20260903233007 78 177 1.0 6.0 0.00 0.00 0.00 24 1029.6
20260903231505 79 193 2.0 5.0 0.00 0.00 0.00 25 1029.5
20260903230009 79 172 0.0 6.0 0.00 0.00 0.00 25 1029.5
20260903224503 79 188 1.0 5.0 0.00 0.00 0.00 24 1029.5
20260903223006 79 186 0.0 7.0 0.00 0.00 0.00 26 1029.6
20260903221600 79 209 1.0 6.0 0.00 0.00 0.00 26 1029.6
20260903220058 80 176 0.0 4.0 0.00 0.00 0.00 25 1029.8
20260903214603 79 192 0.0 5.0 0.00 0.00 0.00 25 1030.0
20260903213108 80 173 0.0 7.0 0.00 0.00 0.00 26 1029.9
20260903211554 79 195 1.0 7.0 0.00 0.00 0.00 26 1030.0
20260903210113 78 153 2.0 4.0 0.00 0.00 0.00 27 1030.0
20260903204548 78 210 1.0 5.0 0.00 0.00 0.00 27 1030.2
20260903203050 82 200 0.0 1.0 0.00 0.00 0.00 20 1030.4
20260903201543 82 215 0.0 1.0 0.00 0.00 0.00 20 1030.4
20260903200040 81 319 0.0 1.0 0.00 0.00 0.00 20 1030.6
20260903194543 81 344 0.0 4.0 0.00 0.00 0.00 23 1030.8
20260903193037 81 207 2.0 4.0 0.00 0.00 0.00 23 1031.0
20260903191531 80 205 2.0 5.0 0.00 0.00 0.00 23 1031.3
20260903190029 80 215 1.0 6.0 0.00 0.00 0.00 24 1031.5
20260903184527 79 209 0.0 4.0 0.00 0.00 0.00 27 1031.7
20260903183020 77 206 0.0 3.0 0.00 0.00 0.00 27 1032.1
20260903181516 76 175 1.0 4.0 0.00 0.00 0.00 30 1032.4
20260903180015 77 194 1.0 4.0 0.00 0.00 0.00 28 1032.6
20260903174513 76 174 0.0 1.0 0.00 0.00 0.00 26 1032.8
20260903173012 76 169 0.0 5.0 0.00 0.00 0.00 25 1032.9
20260903171510 77 208 0.0 1.0 0.00 0.00 0.00 25 1033.0
20260903170011 76 355 0.0 1.0 0.00 0.00 0.00 26 1033.0
20260903164504 74 346 0.0 7.0 0.00 0.00 0.00 28 1033.0
20260903163008 74 199 0.0 1.0 0.00 0.00 0.00 29 1033.0
20260903161600 72 191 0.0 0.0 0.00 0.00 0.00 34 1032.8
20260903160057 71 191 0.0 3.0 0.00 0.00 0.00 36 1032.9
20260903154558 70 290 1.0 3.0 0.00 0.00 0.00 37 1032.9
20260903153050 67 346 0.0 0.0 0.00 0.00 0.00 45 1033.0
20260903151546 65 360 0.0 0.0 0.00 0.00 0.00 53 1033.2
20260903150053 62 5 0.0 0.0 0.00 0.00 0.00 57 1033.5
20260903144540 60 5 0.0 0.0 0.00 0.00 0.00 62 1033.8
20260903143034 56 5 0.0 0.0 0.00 0.00 0.00 63 1034.1
20260903141530 53 5 0.0 0.0 0.00 0.00 0.00 72 1034.2
20260903140035 51 5 0.0 0.0 0.00 0.00 0.00 68 1034.1
20260903134528 49 5 0.0 0.0 0.00 0.00 0.00 72 1034.0
20260903133032 48 5 0.0 0.0 0.00 0.00 0.00 71 1033.9
20260903131526 48 5 0.0 0.0 0.00 0.00 0.00 71 1033.7
20260903130025 47 5 0.0 0.0 0.00 0.00 0.00 69 1033.8
20260903124524 47 5 0.0 0.0 0.00 0.00 0.00 68 1033.5
20260903123022 47 5 0.0 0.0 0.00 0.00 0.00 69 1033.4
20260903121543 47 5 0.0 0.0 0.00 0.00 0.00 70 1033.2
20260903120018 48 5 0.0 0.0 0.00 0.00 0.00 69 1033.2
20260903114517 48 5 0.0 0.0 0.00 0.00 0.00 68 1033.1